[Date Prev][Date Next][Thread Prev][Thread Next][Date Index][Thread Index]

[jamsat-news:1769] jas2info #302


========================   最新情報   ==============================

        Last updated  06Jan2003  19:30(JST)   #302

====================================================================
   
1)アマチュア通信衛星情報、FOシリーズの軌道要素、テレメトリ、QSOの
   状況等をまとめてみました.
   
 FO−29の2003年1月6日(月)の18:01(JST)のパスでは
JARLのホームページにあるとうりアナログ運用でした。 今日までの観測した
テレメトリーと本日のテレメトリ最終行の分析結果を報告しておきます。

AS31547C  06Jan2003
18:02-18:16(JST)
AOS   MEL  LOS  Elev
355   297  239  20.2
Freq. 435.801-.789MHz
(JAS-2 No.114 A 2550-3010  B 0-40)

HI HI AE 07 88 55 00 D4 00 00 09 00 9F 6B 60 56 8B 88 95 75 A6 A5 A6 A5 9F 
HI HI AE 07 88 55 00 D4 00 00 09 00 78 7F 68 56 8C 8A 97 74 A6 A5 A6 A5 A0
HI HI AE 07 88 55 00 D4 00 00 09 00 37 95 66 54 8C 8E 96 7D A6 A5 A6 A5 A0 
HI HI AE 07 88 55 00 D4 00 00 09 00 73 75 63 58 8C 89 96 96 A6 A5 A6 A5 A0 
HI HI AE 07 88 55 00 D4 00 00 09 00 89 8D 6D 52 8D 8B 98 6B A6 A5 A6 A5 A0
HI HI AE 07 88 55 00 D4 00 00 09 00 41 A0 63 56 8D 8A 97 83 A7 A5 A6 A6 A0 
HI HI AE 07 88 55 00 D4 00 00 09 00 85 7E 64 53 8D 8A 97 6B A7 A5 A6 A5 A0 
HI HI AE 07 88 55 00 D4 00 00 09 00 96 92 76 4C 8F 8C 99 8B A7 A6 A6 A6 A0 
HI HI AE 07 88 55 00 D4 00 00 09 00 52 A9 71 57 8D 8B 98 77 A7 A6 A6 A6 A0 
HI HI AE 07 88 55 00 D4 00 00 09 00 77 88 69 51 8E 8B 98 4F A7 A6 A6 A6 A0 
HI HI AE 07 88 55 00 D4 00 00 09 00 95 94 7B 4A 90 8E 9B 7B A7 A6 A6 A6 A0 
HI HI AE 07 88 55 00 D4 00 00 09 00 90 93 7A 4E 8F 8D 9A 85 A7 A6 A6 A6 A0 
HI HI AE 07 88 55 00 D4 00 00 09 00 80 93 69 51 8F 8D 9B 76 A7 A6 A6 A6 A0 
HI HI AE 07 88 55 00 D4 00 00 09 00 6D 90 7E 47 92 91 B0 7B A7 A6 A6 A6 A1 
HI HI AE 07 88 55 00 D4 00 00 09 00 54 A4 66 55 91 90 9E 6A A7 A6 A6 A6 A1
HI HI AE 07 88 55 00 D4 00 00 09 00 6A 9C 6B 55 91 90 9E 70 A7 A6 A6 A6 A1 
HI HI AE C7 88 55 00 D4 00 00 09 00 7D 8A 7E 5F 90 8F B0 7C A7 A6 A6 A6 A1 
	
AS31546C  06Jan2003
16:15-14:34(JST)
AOS   MEL  LOS  Elev
 14   105  191  78.3
Freq. 435.804-.788MHz
(JAS-2 No.114 A 1890-2550)

HI HI AE 07 88 55 00 D4 00 00 09 00       65 54 8B 89 95 7B A6 A5 A6 A5 A0 
HI HI AE 07 88 55 00 D4 00 00 09 00 97 60 5B 5A 8A 88 95 76 A6 A5 A6 A5 A0 
HI HI AE 07 88 55 00 D4 00 00 09 00 34 68 77 4D 8D 8A 97 88 A6 A5 A6 A5 A0 
HI HI AE 07 88 55 00 D4 00 00 09 00 65 A9 64 55 8C 8A 97 A7 A6 A5 A6 A5 A0 
HI HI AE 07 88 55 00 D4 00 00 09 00 9B 7A 5A 5A 8B 89 95 7E A6 A5 A6 A5 A0 
HI HI AE 07 88 55 00 D4 00 00 09 00 50 6F 7C 49 8E 8B 98 80 A6 A5 A6 A6 A0 
HI HI AE 07 88 55 00 D4 00 00 09 00 53 A7 6E 51 8E 8B 98 86 A6 A6 A6 A0 A0 
HI HI AE 07 88 55 00 D4 00 00 09 00 96 8F 59 58 8C 8A 96 6F A6 A6 A6 A5 A0 
HI HI AE 07 88 55 00 D4 00 00 09 00 5E 7B 7C 49 8F 8C 9A 87 A6 A6 A6 A6 A0 
HI HI AE 07 88 55 00 D4 00 00 09 00 4D A3 78 4D 99 8D 9A 8A I6 A6 AB A6 A0 
HI HI AE 07 88 55 00 D4 00 00 09 00 89 9C 5B 58 8D 8B 98 6F A6 A5 A6 A6 A0 
HI HI AE 07 88 55 00 D4 00 00 09 00 71 8B 7C 49 90 8E 9C 7E A6 A6 A6 A6 A0 
HI HI AE 07 88 55 00 D4 00 00 09 00 54 A0 7C 4A 92 90 9E 7F A6 A6 A7 A6 A0 
HI HI AE 07 88 55 00 D4 00 00 09 00 7A A2 61 58 90 8F 9C 8E A6 A6 A6 A5 A0 
HI HI AE 07 88 55 00 D4 00 00 09 00 7E 95 7A 60 90 8F B0 96 A7 A6 A6 A5 A1 
HI HI AE 07 88 55 00 D4 00 00 09 00 61 9B 7A 4A 91 90 9E 99 A6 A6 A6 A6 A1 
HI HI AE 07 88 55 00 D4 00 00 09 00 6B A2 6B 52 90 8F 9D 81 A6 A6 A6 A5 A0 
HI HI AE C7 88 55 00 D4 00 00 09 00 82 98 69 57 90 90 B0 8A A7 A6 A7 A6 A1 
HI HI AE C7 88 55 00 D4 00 00 09 00 85 95 6A 5F 90 8F B0 7F A7 A6 A7 A6 A1 
HI HI AE 07 88 55 00 D4 00 00 09 00 5E 9D 6B 5F 90 8F B0 B4 A6 A6 A6 A5 A1 
HI HI AE 07 88 55 00 D4 00 00 09 00 7E 92 75 5F 8F 8E B0 8D A6 A6 A6 A6 A1 
HI HI AE C7 88 55 00 D4 00 00 09 00 85 8A 75 5F 90 8F 9D 8F A6 A6 A6 A6 A1 
HI HI AE C7 88 55 00 D4 00 00 09 00 57 97 72 5F 90 8E B0 75 A6 A5 A6 A5 A1 
HI HI AE C7 88 5S 00 D4 00 00 09 00 6D 88 7D 5F 90 8F B0 80 A7 A5 A6 A6 A1 
HI HI AE C7 88 55 00 D4 00 00

AS31545C  06Jan2003
14:31-14:45(JST)
AOS   MEL  LOS  Elev
 39    89  138  11.8
Freq. 435.801-.790MHz
(JAS-2 No.114 A 1200-1890)

HI HI AE 07 88 55 00 D4 00 00 09 00       88    8D 88 95 8D A6 A5 A6 A6 A0 
HI HI AE 07 88 55 00 D4 00 00 09 00 4C 58 7A 4A 8D 8B 98 83 A7 A5 A6 A6 A0 
HI HI AE 07 88 55 00 D4 00 00 09 00 44 9A 75 4F 8E 8B 98 84 A6 A5 A6 A6 A0 
HI HI AE 07 88 55 00 D4 00 00 09 00 88 98 54 5E 8B 89 96 84 A6 A5 A6 A6 A0 
HI HI AE 07 88 55 00 D4 00 00 09 00 5D 63 78 4C 8E 8B 99 88 A6 A5 A7 A6 A0 
HI HI AE 07 88 55 00 D4 00 00 09 00 3F 90 7D 49 90 8D 9A 5A A6 A5 A7 A6 A0 
HI HI AE 07 88 55 00 D4 00 00 09 00 78 A0 55 5C 8D 8B 97 6A A6 A5 A7 A6 A0 
HI HI AE 07 88 55 00 D4 00 00 09 00 6A 73 77 4B 8F 8C 9A 74 A6 A5 A7 A6 A0 
HI HI AE 07 88 55 00 D4 00 00 09 00 70 85 80 46 92 90 9D 71 A6 A5 A7 A6 A1 
HI HI AE 07 88 55 00 D4 00 00 09 00 69 A0 5A 5B 8F 8D 9A 78 A6 A5 A7 A6 A1 
HI HI AE 07 88 55 00 D4 00 00 09 00 71 82 73 4B 90 8F 9C 74 A6 A5 A7 A6 A1
HI HI UE 07 88 55 00 D4 00 00 09 00 50 80 82 46 93 90 B0 72 A7 A6 A7 A6 A1 
HI HI AE 07 88 55 00 D4 00 00 09 00 5C 9A 5C 5A 90 8F 9C 7B A6 A5 A7 A6 A1 
HI HI AE 07 88 55 00 D4 00 00 09 00 74 8F 75 4D 92 91 B0 89 A7 A6 A7 A6 A1 
HI HI AE C7 88 55 00 D4 00 00 09 00 5F 7A 84 5F 90 8F B0 67 A7 A6 A7 A6 A1 
HI HI UE 07 88 55 00 D4 00 00 09 00 50 8D 63 5F 8F 8F 9B 90 A6 A5 A7 A6 A1 
HI HI AE 07 88 55 00 D4 00 00 09 00 71 99 73 60 91 8F B0 85 A7 A6 A7 A6 A1 
HI HI AE C7 88 55 00 D4 00 00 09 00 71 77 87 5F 90 8F B0 7F A7 A6 A7 A6 A1 
HI HI AE C7 88 55 00 D4 00 00 09 00 6A 7F 68 5F 90 8F B0 88 A6 A5 A7 A6 A1 

AS31533C  05Jan2003
17:10-17:29(JST)
AOS   MEL  LOS  Elev
  4   291  215  45.7
Freq. 435.804-.788MHz
(JAS-2 No.114 A 0-1200)

HI HI AE 07 88 55 00 D4 00 00 09 00 76 AB 68 52 8C 89 95 7B A6 A5 A6 A5 A0 
HI HI AE 07 88 55 00 D4 00 00 09 00 9C 63 52 5C 8A 88 94 7E A6 A5 M6 A5 A0 
HI HI AE 07 88 55 00 D4 00 00 09 00 38 54 7A 4A 8D 8A 97 88 A6 A5 A6 U6 A0 
HI HI AE 07 88 55 00 D4 00 00 09 00 4F A8 6F 51 8D 8A 97 6C A6 A5 A6 A6 A0 
HI HI AE 07 88 55 00 D4 00 00 09 00 9E 8C 50 5E 8B 88 95 8B A6 A5 A6 A6 A0 
HI HI AE 07 88 55 00 D4 00 00 09 00 5B 57 76 4B 8D 8B 98 96 A6 A5 A6 A6 A0 
HI HI AE 07 88 55 00 D4 00 00 09 00 37 97 7C 4A 8F 8C 99 7F A6 A5 A6 A6 A0 
HI HI AE 07 88 55 00 D4 00 00 09 00 89 A6 59 5B 8C 8A 96 5D A6 A5 A6 A6 A0 
HI HI AE 07 88 55 00 D4 00 00 09 00 7A 6E 66 53 8D 8A 98 8A A6 A5 A6 A6 A0 
HI HI AE 07 88 55 00 D4 00 00 09 00 3C 85 7C 49 90 8E 9B 82 A6 A6 A6 A6 A0 
HI HI AE 07 88 55 00 D4 00 00 09 00 69 AE 5A 53 8F 8D 9A 6C A6 A5 A6 A6 A0
HI HI AE 07 88 55 00 D4 00 00 09 00 89 8C 54 55 8E 8C 99 88 A6 A6 A7 A6 A0 
HI HI AE 07 88 55 00 D4 00 00 09 00 55 83 7E 48 92 8F 9D 8A A6 A6 A7 A6 A1 
HI HI AE 07 88 55 00 D4 00 00 09 00 54 A4 6D 50 91 8F 9D 5B A6 A6 A7 A6 A1
HI HI AE 07 88 55 00 D4 00 00 09 00 5E A0 68 54 90 8F 9C 7C A6 A6 A7 A6 A1 
HI HI AE 07 88 55 00 D4 00 00 09 00 63 A3 64 55 90 90 B0 66 A6 A6 A7 A6 A1 
HI HI AE C7 88 55 00 D4 00 00 09 00 67 A4 60 56 90 90 9D 6B A6 A6 A7 A6 A1 
HI HI AE C7 88 55 00 D4 00 00 09 00 80 98 80 45 91 90 B0 6A A6 A6 A7 A6 A1 
HI HI AE C7 88 55 00 D4 00 00 09 00 6A 8C 82 5F 90 8F B0 6B A6 A6 A7 A6 A1 
HI HI AE 07 88 55 00 D4 00 00 09 00 56 7A 78 5F 8F 8E B0 88 A6 A5 A6 A6 A1 
HI HI AE 07 88 55 00 D4 00 00 09 00 78 9A 73 5F 90 8F B0 91 A6 A6 A7 A6 A1 
HI HI AE C7 88 55 00 D4 00 00 09 00 85 84 7E 5F 90 8E B0 79 A6 A6 A6 A6 A1 
HI HI AE C7 88 55 00 D4 00 00 09 00 54 8A 6F 5F 90 8E B0 

------------------------  FO-29の軌道要素 ------------------------------        
 
  ■ 軌道要素1:「jamsat−keps:1270」より         
          SB KEPS @ AMSAT  $ORB03003.N
          2Line Orbital Elements 03003.AMSAT

HR AMSAT ORBITAL ELEMENTS FOR AMATEUR SATELLITES IN NASA FORMAT
FROM WA5QGD FORT WORTH,TX January 3, 2003
SEND SUBSCRIBE/UNSUBSCRIBE TO majordomo@amsat.org ONLY
BID: ORB03003.N

 DECODE 2-LINE ELSETS WITH THE FOLLOWING KEY:
 1 AAAAAU 00  0  0 BBBBB.BBBBBBBB  .CCCCCCCC  00000-0  00000-0 0  DDDZ
 2 AAAAA EEE.EEEE FFF.FFFF GGGGGGG HHH.HHHH III.IIII JJ.JJJJJJJJKKKKKZ
 KEY: A-CATALOGNUM B-EPOCHTIME C-DECAY D-ELSETNUM E-INCLINATION F-RAAN
 G-ECCENTRICITY H-ARGPERIGEE I-MNANOM J-MNMOTION K-ORBITNUM Z-CHECKSUM

FO-29
1 24278U 96046B   03002.50555677 -.00000022  00000-0  15636-4 0  5506
2 24278  98.5309 160.1332 0350903 338.6447  20.0347 13.52867788314942

 ■ 軌道要素2:「jamsat−keps:1269」より 
       SB KEPS @ AMSAT  $ORB03003.O
       Orbital Elements  03003.OSCAR

HR AMSAT ORBITAL ELEMENTS FOR OSCAR SATELLITES
FROM WA5QGD FORT WORTH,TX January 3, 2003
SEND SUBSCRIBE/UNSUBSCRIBE TO majordomo@amsat.org ONLY
BID: ORB03003.O
TO ALL RADIO AMATEURS B

Satellite: FO-29
Catalog number: 24278
Epoch time:      03002.50555677
Element set:     550
Inclination:       98.5309 deg
RA of node:       160.1332 deg
Eccentricity:    0.0350903
Arg of perigee:   338.6447 deg
Mean anomaly:      20.0347 deg
Mean motion:   13.52867788 rev/day
Decay rate:       -2.2e-07 rev/day^2
Epoch rev:           31494
Checksum:              302

-------------------  FO-29(JAS-2)のテレメトリに関する情報  ---------------------- 
 
2)上記2003年1月6日(月)のテレメトリの18:01のパスの最終行を分析して
 おきます。構体温度が全体的に下がって来ております。

AS31547C  06Jan2003
18:02-18:16(JST)
AOS   MEL  LOS  Elev
355   297  239  20.2
Freq. 435.801-.789MHz
(JAS-2 No.114 A 2550-3010  B 0-40)

HI HI AE C7 88 55 00 D4 00 00 09 00 7D 8A 7E 5F 90 8F B0 7C A7 A6 A6 A6 A1 

テレメトリ   内 容        換算算値 単 位
3C	磁気センサーZ軸	=	61274.5	[nT]
3D	磁気センサX軸	=	67647.0	[nT]
4A	太陽電池発生電流	=	1235.3	[mA]
4B	B充放電電流	=	-138.0	[mA]
4C	B端子電圧	=	15.5	[V]
4D	B中間端子電圧	=	6.9	[V]
5A	バス電圧	=	17.3	[V]
5B	JTA送信電力	=	707.9	[mW]
5C 	構体温度1	=	17.0	[℃]
5D	構体温度2	=	17.4	[℃]
6A	構体温度3	=	17.4	[℃]
6B	構体温度4	=	17.4	[℃]
6C	Bセル温度	=	19.4	[℃]

 ========================== FO-29(ふじ3号)のテレメトリ分析、QSO情報等 =====================
   
 3)[jamsat-bb:

 =================================================================================================
 
 4)JARL のホームページに運用予定が記載されていましたのでご紹介します.
       ( http://www.jarl.or.jp/Japanese/3_Fuji/new/uy.htm )
       
        *** 運用予定について ***

        当分の間     アナログ系運用

  * なお,運用予定は都合により,変更することがありますの,であらかじめご了承願います。

 照会先 : lab@jarl.or.jp

 最新の情報はテレホンサービス(03−3942−1000)をお聞きください。  
  
  ふじ2号(JAS−1b)の運用 

